Weather History for Fort Madison, IA

Change the Weather History Date:

Saturday, July 27, 2013

  Actual Average Record
Temperature  
Mean Temperature 62 °F -  
Max Temperature 69 °F 86 °F 100 °F (1955)
Min Temperature 55 °F 66 °F 48 °F (2004)
Degree Days  
Heating Degree Days 3    
Growing Degree Days 12 (Base 50)    
Moisture  
Dew Point 50 °F    
Average Humidity 68    
Maximum Humidity 100    
Minimum Humidity 40    
Precipitation  
Precipitation 0.00 in - - ()
Sea Level Pressure  
Sea Level Pressure 30.01 in    
Wind  
Wind Speed 9 mph (NW)    
Max Wind Speed 17 mph    
Max Gust Speed 26 mph    
Visibility 10 miles    
Events      
Averages and records for this station are not official NWS values.
T = Trace of Precipitation, MM = Missing Value Source: NWS Daily Summary

Daily Weather History Graph

Daily Weather History Graph

Search for Another Location

Airport:

Trip Planner

Search our weather history database for the weather conditions in past years. The results will help you decide how hot, cold, wet, or windy it might be!

Date:

Astronomy

Jul. 27, 2013 Rise Set
Actual Time 5:57 AM CDT 8:25 PM CDT
Civil Twilight 5:26 AM CDT 8:56 PM CDT
Nautical Twilight 4:47 AM CDT 9:35 PM CDT
Astronomical Twilight 4:04 AM CDT 10:17 PM CDT
Moon 11:10 PM CDT (7/27) 11:40 AM CDT (7/27)
Length of Visible Light 15h 29m
Length of Day
14h 27m
Waning Gibbous, 70% of the Moon is Illuminated
Jul 27
Waning Gibbous
Jul 29
Last Quarter
Aug 6
New
Aug 14
First Quarter
Aug 20
Full

Hourly Weather History & Observations

Time (CDT) Temp. Dew Point Humidity Pressure Visibility Wind Dir Wind Speed Gust Speed Precip Events Conditions
12:15 AM 60.8 °F 57.2 °F 88% 30.01 in 10.0 mi West 4.6 mph - N/A   Clear
12:35 AM 60.8 °F 57.2 °F 88% 30.01 in 10.0 mi West 5.8 mph - N/A   Clear
12:55 AM 60.8 °F 57.2 °F 88% 30.01 in 10.0 mi WNW 8.1 mph - N/A   Clear
1:15 AM 60.8 °F 57.2 °F 88% 30.00 in 10.0 mi WNW 8.1 mph - N/A   Clear
1:35 AM 60.8 °F 57.2 °F 88% 30.00 in 10.0 mi WNW 8.1 mph - N/A   Clear
1:55 AM 60.8 °F 55.4 °F 82% 29.99 in 10.0 mi WNW 8.1 mph - N/A   Clear
2:15 AM 60.8 °F 57.2 °F 88% 29.99 in 10.0 mi NW 9.2 mph - N/A   Clear
2:35 AM 59.0 °F 55.4 °F 88% 29.99 in 10.0 mi NW 8.1 mph - N/A   Clear
2:55 AM 59.0 °F 55.4 °F 88% 29.99 in 10.0 mi NW 6.9 mph - N/A   Clear
3:15 AM 57.2 °F 55.4 °F 94% 29.99 in 10.0 mi NW 8.1 mph - N/A   Clear
3:35 AM 57.2 °F 55.4 °F 94% 29.99 in 10.0 mi NW 8.1 mph - N/A   Clear
3:55 AM 57.2 °F 55.4 °F 94% 29.99 in 10.0 mi NW 8.1 mph - N/A   Clear
4:15 AM 57.2 °F 55.4 °F 94% 30.00 in 10.0 mi NW 8.1 mph - N/A   Clear
4:35 AM 57.2 °F 55.4 °F 94% 30.00 in 10.0 mi NW 8.1 mph - N/A   Clear
4:55 AM 57.2 °F 55.4 °F 94% 30.01 in 10.0 mi NW 6.9 mph - N/A   Clear
5:15 AM 55.4 °F 55.4 °F 100% 30.01 in 10.0 mi NW 6.9 mph - N/A   Clear
5:35 AM 55.4 °F 55.4 °F 100% 30.02 in 10.0 mi NW 5.8 mph - N/A   Clear
5:55 AM 55.4 °F 55.4 °F 100% 30.03 in 10.0 mi NW 6.9 mph - N/A   Clear
6:15 AM 55.4 °F 53.6 °F 94% 30.03 in 10.0 mi NW 5.8 mph - N/A   Clear
6:35 AM 55.4 °F 53.6 °F 94% 30.03 in 10.0 mi NNW 5.8 mph - N/A   Clear
6:55 AM 57.2 °F 55.4 °F 94% 30.03 in 10.0 mi NNW 8.1 mph - N/A   Clear
7:15 AM 57.2 °F 55.4 °F 94% 30.03 in 10.0 mi NNW 9.2 mph - N/A   Clear
7:35 AM 59.0 °F 55.4 °F 88% 30.03 in 10.0 mi NNW 9.2 mph 16.1 mph N/A   Clear
7:55 AM 60.8 °F 55.4 °F 82% 30.04 in 10.0 mi NW 9.2 mph - N/A   Clear
8:15 AM 60.8 °F 55.4 °F 82% 30.04 in 10.0 mi NW 11.5 mph - N/A   Clear
8:35 AM 60.8 °F 53.6 °F 77% 30.05 in 10.0 mi NNW 12.7 mph 18.4 mph N/A   Clear
8:55 AM 60.8 °F 51.8 °F 72% 30.05 in 10.0 mi NNW 10.4 mph 16.1 mph N/A   Clear
9:15 AM 62.6 °F 48.2 °F 59% 30.04 in 10.0 mi North 15.0 mph 18.4 mph N/A   Clear
9:35 AM 62.6 °F 51.8 °F 68% 30.04 in 10.0 mi NNW 17.3 mph - N/A   Clear
9:55 AM 64.4 °F 51.8 °F 64% 30.04 in 10.0 mi NNW 13.8 mph 19.6 mph N/A   Clear
10:15 AM 64.4 °F 50.0 °F 59% 30.04 in 10.0 mi NW 12.7 mph 18.4 mph N/A   Clear
10:35 AM 64.4 °F 48.2 °F 56% 30.05 in 10.0 mi NW 12.7 mph 19.6 mph N/A   Scattered Clouds
10:55 AM 66.2 °F 48.2 °F 52% 30.04 in 10.0 mi NNW 12.7 mph 21.9 mph N/A   Scattered Clouds
11:15 AM 66.2 °F 46.4 °F 49% 30.04 in 10.0 mi NNW 13.8 mph 24.2 mph N/A   Scattered Clouds
11:35 AM 66.2 °F 46.4 °F 49% 30.04 in 10.0 mi NW 15.0 mph 23.0 mph N/A   Scattered Clouds
11:55 AM 66.2 °F 46.4 °F 49% 30.03 in 10.0 mi NNW 17.3 mph 23.0 mph N/A   Scattered Clouds
12:15 PM 66.2 °F 44.6 °F 46% 30.03 in 10.0 mi NW 13.8 mph 24.2 mph N/A   Mostly Cloudy
12:35 PM 68.0 °F 46.4 °F 46% 30.03 in 10.0 mi NW 16.1 mph 23.0 mph N/A   Scattered Clouds
12:55 PM 69.8 °F 46.4 °F 43% 30.02 in 10.0 mi NW 13.8 mph 26.5 mph N/A   Scattered Clouds
1:15 PM 69.8 °F 46.4 °F 43% 30.02 in 10.0 mi NW 17.3 mph 24.2 mph N/A   Mostly Cloudy
1:35 PM 68.0 °F 44.6 °F 43% 30.02 in 10.0 mi WNW 13.8 mph 23.0 mph N/A   Mostly Cloudy
1:55 PM 66.2 °F 46.4 °F 49% 30.02 in 10.0 mi NW 13.8 mph 21.9 mph N/A   Overcast
2:15 PM 69.8 °F 46.4 °F 43% 30.02 in 10.0 mi WNW 12.7 mph 24.2 mph N/A   Mostly Cloudy
2:35 PM 69.8 °F 46.4 °F 43% 30.01 in 10.0 mi NW 17.3 mph 24.2 mph N/A   Mostly Cloudy
2:55 PM 68.0 °F 44.6 °F 43% 30.02 in 10.0 mi WNW 13.8 mph - N/A   Mostly Cloudy
3:15 PM 69.8 °F 44.6 °F 40% 30.01 in 10.0 mi WNW 10.4 mph 20.7 mph N/A   Mostly Cloudy
3:35 PM 68.0 °F 46.4 °F 46% 30.01 in 10.0 mi NW 11.5 mph - N/A   Overcast
3:55 PM 66.2 °F 46.4 °F 49% 30.00 in 10.0 mi NNW 11.5 mph - N/A   Overcast
4:15 PM 69.8 °F 46.4 °F 43% 30.00 in 10.0 mi NW 10.4 mph - N/A   Mostly Cloudy
4:35 PM 69.8 °F 46.4 °F 43% 30.00 in 10.0 mi WNW 10.4 mph 20.7 mph N/A   Mostly Cloudy
4:55 PM 69.8 °F 46.4 °F 43% 30.00 in 10.0 mi NNW 12.7 mph - N/A   Scattered Clouds
5:15 PM 69.8 °F 46.4 °F 43% 30.00 in 10.0 mi NNW 12.7 mph 18.4 mph N/A   Scattered Clouds
5:35 PM 69.8 °F 46.4 °F 43% 29.99 in 10.0 mi NW 11.5 mph 21.9 mph N/A   Scattered Clouds
5:55 PM 68.0 °F 46.4 °F 46% 29.99 in 10.0 mi NW 10.4 mph - N/A   Scattered Clouds
6:15 PM 69.8 °F 44.6 °F 40% 29.99 in 10.0 mi NNW 15.0 mph 20.7 mph N/A   Scattered Clouds
6:35 PM 68.0 °F 44.6 °F 43% 29.99 in 10.0 mi NW 11.5 mph 16.1 mph N/A   Clear
6:55 PM 68.0 °F 44.6 °F 43% 29.99 in 10.0 mi NNW 11.5 mph - N/A   Clear
7:15 PM 66.2 °F 46.4 °F 49% 30.00 in 10.0 mi NNW 11.5 mph - N/A   Clear
7:35 PM 64.4 °F 46.4 °F 52% 30.01 in 10.0 mi NNW 8.1 mph - N/A   Clear
7:55 PM 64.4 °F 46.4 °F 52% 30.01 in 10.0 mi NNW 6.9 mph - N/A   Clear
8:15 PM 62.6 °F 46.4 °F 55% 30.01 in 10.0 mi NW 4.6 mph - N/A   Clear
8:35 PM 60.8 °F 46.4 °F 59% 30.01 in 10.0 mi NW 4.6 mph - N/A   Clear
8:55 PM 57.2 °F 48.2 °F 72% 30.01 in 10.0 mi West 3.5 mph - N/A   Clear
9:15 PM 55.4 °F 51.8 °F 88% 30.01 in 10.0 mi Calm Calm - N/A   Clear
9:35 PM 55.4 °F 50.0 °F 82% 30.01 in 10.0 mi Calm Calm - N/A   Clear
9:55 PM 55.4 °F 50.0 °F 82% 30.02 in 10.0 mi West 3.5 mph - N/A   Clear
10:15 PM 57.2 °F 48.2 °F 72% 30.01 in 10.0 mi Calm Calm - N/A   Clear
10:35 PM 57.2 °F 48.2 °F 72% 30.01 in 10.0 mi Calm Calm - N/A   Clear
10:55 PM 57.2 °F 48.2 °F 72% 30.01 in 10.0 mi West 3.5 mph - N/A   Clear
11:15 PM 57.2 °F 46.4 °F 67% 30.01 in 10.0 mi West 3.5 mph - N/A   Clear
11:35 PM 57.2 °F 46.4 °F 67% 30.01 in 10.0 mi West 3.5 mph - N/A   Clear
11:55 PM 57.2 °F 46.4 °F 67% 30.01 in 10.0 mi WSW 3.5 mph - N/A   Clear